AE5HO Weather Reports


Display with metric or nautical units.
time (UTC)temp
F
wind
direction
speed
MPH
gust
MPH
rain 1hr
in
rain 24hr
in
rain mn
in
humidity
%
barometer
mb
20260902191902 97 194 0.0 2.0 0.00 0.00 0.00 48 1014.3
20260902191358 97 60 0.0 3.0 0.00 0.00 0.00 48 1014.3
20260902190859 96 74 0.0 2.0 0.00 0.00 0.00 48 1014.5
20260902190359 96 180 0.0 1.0 0.00 0.00 0.00 50 1014.3
20260902185855 96 188 0.0 3.0 0.00 0.00 0.00 50 1014.7
20260902185350 96 270 2.0 4.0 0.00 0.00 0.00 51 1014.5
20260902184845 97 203 0.0 1.0 0.00 0.00 0.00 50 1014.7
20260902184341 96 90 0.0 2.0 0.00 0.00 0.00 50 1014.7
20260902183836 96 90 1.0 2.0 0.00 0.00 0.00 50 1014.9
20260902183332 96 163 2.0 2.0 0.00 0.00 0.00 48 1015.1
20260902182828 96 191 0.0 2.0 0.00 0.00 0.00 49 1015.0
20260902182324 95 56 2.0 3.0 0.00 0.00 0.00 50 1015.2
20260902181820 96 212 2.0 3.0 0.00 0.00 0.00 50 1015.2
20260902181315 95 206 1.0 3.0 0.00 0.00 0.00 54 1015.4
20260902180809 95 203 1.0 3.0 0.00 0.00 0.00 55 1015.4
20260902180306 94 188 0.0 2.0 0.00 0.00 0.00 53 1015.5
20260902175801 95 188 0.0 2.0 0.00 0.00 0.00 52 1015.6
20260902175256 96 248 0.0 4.0 0.00 0.00 0.00 50 1015.8
20260902174751 95 191 2.0 6.0 0.00 0.00 0.00 51 1015.8
20260902174248 95 180 1.0 1.0 0.00 0.00 0.00 53 1015.9
20260902173743 95 180 0.0 2.0 0.00 0.00 0.00 53 1016.0
20260902173242 95 30 0.0 2.0 0.00 0.00 0.00 52 1016.1
20260902172737 96 208 0.0 2.0 0.00 0.00 0.00 51 1016.0
20260902172237 95 209 1.0 3.0 0.00 0.00 0.00 52 1016.2
20260902171732 94 240 0.0 2.0 0.00 0.00 0.00 53 1016.3
20260902171227 95 254 0.0 2.0 0.00 0.00 0.00 53 1016.4
20260902170724 94 249 0.0 2.0 0.00 0.00 0.00 54 1016.5
20260902170220 94 270 2.0 2.0 0.00 0.00 0.00 53 1016.3
20260902165720 95 166 2.0 2.0 0.00 0.00 0.00 53 1016.6
20260902165214 95 285 2.0 4.0 0.00 0.00 0.00 51 1016.6
20260902164715 96 188 0.0 3.0 0.00 0.00 0.00 52 1016.5
20260902164214 95 188 1.0 2.0 0.00 0.00 0.00 52 1016.8
20260902163709 95 229 0.0 2.0 0.00 0.00 0.00 52 1016.8
20260902163209 93 169 0.0 3.0 0.00 0.00 0.00 54 1016.6
20260902162708 93 191 2.0 2.0 0.00 0.00 0.00 56 1016.7
20260902162202 93 203 0.0 2.0 0.00 0.00 0.00 55 1016.9
20260902161657 93 261 0.0 1.0 0.00 0.00 0.00 55 1017.3
20260902161153 92 200 1.0 1.0 0.00 0.00 0.00 57 1016.8
20260902160650 93 107 2.0 3.0 0.00 0.00 0.00 56 1016.8
20260902160144 93 192 0.0 3.0 0.00 0.00 0.00 56 1017.0
20260902155642 93 5 2.0 2.0 0.00 0.00 0.00 55 1016.7
20260902155141 93 186 0.0 3.0 0.00 0.00 0.00 56 1016.9
20260902154636 93 209 1.0 2.0 0.00 0.00 0.00 56 1017.0
20260902154131 91 192 1.0 2.0 0.00 0.00 0.00 60 1017.1
20260902153631 91 157 1.0 1.0 0.00 0.00 0.00 59 1017.0
20260902153126 90 306 0.0 1.0 0.00 0.00 0.00 59 1016.7
20260902152622 90 303 0.0 3.0 0.00 0.00 0.00 60 1016.8
20260902152117 88 106 0.0 3.0 0.00 0.00 0.00 61 1016.9
20260902151613 90 261 0.0 2.0 0.00 0.00 0.00 59 1017.0
20260902151113 89 176 0.0 0.0 0.00 0.00 0.00 63 1017.0
20260902150608 89 270 2.0 2.0 0.00 0.00 0.00 62 1016.9
20260902150104 88 286 0.0 2.0 0.00 0.00 0.00 64 1016.9
20260902145603 87 275 2.0 2.0 0.00 0.00 0.00 65 1016.7
20260902145103 86 97 0.0 3.0 0.00 0.00 0.00 67 1016.8
20260902144600 86 74 0.0 1.0 0.00 0.00 0.00 67 1017.0
20260902144100 85 111 0.0 2.0 0.00 0.00 0.00 67 1016.7
20260902143555 85 261 0.0 1.0 0.00 0.00 0.00 67 1016.8
20260902143051 85 270 0.0 2.0 0.00 0.00 0.00 68 1017.0
20260902142546 85 261 0.0 1.0 0.00 0.00 0.00 69 1016.8
20260902142042 84 180 0.0 1.0 0.00 0.00 0.00 69 1016.8
20260902141542 85 285 1.0 2.0 0.00 0.00 0.00 69 1016.7
20260902141037 84 246 1.0 1.0 0.00 0.00 0.00 70 1017.0
20260902140537 84 189 0.0 2.0 0.00 0.00 0.00 70 1016.9
20260902140033 84 174 0.0 3.0 0.00 0.00 0.00 70 1016.7
20260902135532 84 175 2.0 3.0 0.00 0.00 0.00 70 1016.8
20260902135027 83 180 2.0 3.0 0.00 0.00 0.00 70 1016.9
20260902134523 83 254 1.0 2.0 0.00 0.00 0.00 72 1017.0
20260902134023 83 195 0.0 0.0 0.00 0.00 0.00 72 1016.7
20260902133523 83 188 0.0 1.0 0.00 0.00 0.00 72 1016.8
20260902133018 82 109 0.0 0.0 0.00 0.00 0.00 73 1016.7
20260902132513 82 191 2.0 2.0 0.00 0.00 0.00 73 1016.8
20260902132008 82 168 0.0 1.0 0.00 0.00 0.00 73 1016.9
20260902131505 82 234 0.0 1.0 0.00 0.00 0.00 74 1016.8
20260902131004 81 254 0.0 1.0 0.00 0.00 0.00 75 1016.5
20260902130500 81 180 0.0 1.0 0.00 0.00 0.00 75 1016.3
20260902125955 81 194 0.0 1.0 0.00 0.00 0.00 75 1016.3
20260902125451 81 180 0.0 1.0 0.00 0.00 0.00 76 1016.3
20260902124946 80 195 0.0 1.0 0.00 0.00 0.00 76 1016.5
20260902124443 80 194 0.0 1.0 0.00 0.00 0.00 77 1016.4
20260902123937 80 180 0.0 1.0 0.00 0.00 0.00 77 1016.4
20260902123434 80 187 0.0 2.0 0.00 0.00 0.00 77 1016.3
20260902122932 79 194 0.0 2.0 0.00 0.00 0.00 77 1016.2
20260902122428 79 188 0.0 1.0 0.00 0.00 0.00 78 1016.1
20260902121923 79 180 0.0 0.0 0.00 0.00 0.00 79 1016.2
20260902121418 79 180 0.0 1.0 0.00 0.00 0.00 79 1016.1
20260902120913 78 194 0.0 1.0 0.00 0.00 0.00 79 1016.1
20260902120410 79 180 0.0 0.0 0.00 0.00 0.00 80 1016.0
20260902115909 79 180 0.0 0.0 0.00 0.00 0.00 80 1015.9
20260902115405 79 180 0.0 0.0 0.00 0.00 0.00 79 1016.1
20260902114902 79 180 0.0 0.0 0.00 0.00 0.00 79 1015.9
20260902114357 79 203 0.0 0.0 0.00 0.00 0.00 78 1015.9
20260902113857 79 180 0.0 0.0 0.00 0.00 0.00 78 1016.1
20260902113353 79 180 0.0 0.0 0.00 0.00 0.00 78 1016.0
20260902112852 79 180 0.0 0.0 0.00 0.00 0.00 78 1016.0
20260902112348 80 180 0.0 0.0 0.00 0.00 0.00 77 1015.9
20260902111844 80 180 0.0 0.0 0.00 0.00 0.00 77 1016.0
20260902111340 80 180 0.0 0.0 0.00 0.00 0.00 76 1016.2
20260902110836 80 188 0.0 0.0 0.00 0.00 0.00 77 1016.1
20260902110331 80 188 0.0 0.0 0.00 0.00 0.00 76 1016.0
20260902105831 80 188 0.0 0.0 0.00 0.00 0.00 76 1016.1
20260902105326 80 195 0.0 1.0 0.00 0.00 0.00 76 1016.0
20260902104821 80 188 1.0 1.0 0.00 0.00 0.00 76 1016.0
20260902104318 80 180 0.0 2.0 0.00 0.00 0.00 76 1016.1
20260902103817 80 169 0.0 2.0 0.00 0.00 0.00 76 1016.0
20260902103312 80 279 0.0 0.0 0.00 0.00 0.00 76 1016.1
20260902102808 80 180 0.0 0.0 0.00 0.00 0.00 76 1016.0
20260902102307 80 188 0.0 0.0 0.00 0.00 0.00 75 1015.9
20260902101801 80 188 0.0 1.0 0.00 0.00 0.00 75 1016.0
20260902101255 80 180 0.0 0.0 0.00 0.00 0.00 75 1015.7
20260902100755 80 188 0.0 0.0 0.00 0.00 0.00 75 1015.9
20260902100254 80 188 0.0 0.0 0.00 0.00 0.00 75 1016.0
20260902095750 80 188 0.0 1.0 0.00 0.00 0.00 75 1015.9
20260902095250 80 188 1.0 1.0 0.00 0.00 0.00 75 1015.7
20260902094744 80 180 0.0 0.0 0.00 0.00 0.00 75 1015.8
20260902094240 81 180 0.0 0.0 0.00 0.00 0.00 74 1015.9
20260902093740 81 180 0.0 0.0 0.00 0.00 0.00 73 1015.9
20260902093235 81 180 0.0 0.0 0.00 0.00 0.00 73 1015.8
20260902092734 81 180 0.0 0.0 0.00 0.00 0.00 73 1015.9
20260902092230 81 180 0.0 0.0 0.00 0.00 0.00 73 1016.0
20260902091729 82 180 0.0 0.0 0.00 0.00 0.00 72 1015.9
20260902091226 82 180 0.0 0.0 0.00 0.00 0.00 71 1016.0
20260902090722 82 180 0.0 0.0 0.00 0.00 0.00 71 1016.0
20260902090221 82 180 0.0 0.0 0.00 0.00 0.00 70 1016.0
20260902085715 83 180 0.0 0.0 0.00 0.00 0.00 69 1015.9
20260902085211 83 240 0.0 1.0 0.00 0.00 0.00 69 1015.9
20260902084707 83 180 0.0 0.0 0.00 0.00 0.00 68 1016.2
20260902084203 83 165 0.0 0.0 0.00 0.00 0.00 68 1015.9
20260902083703 83 180 0.0 0.0 0.00 0.00 0.00 67 1015.8
20260902083202 84 180 0.0 0.0 0.00 0.00 0.00 67 1016.2
20260902082658 84 243 0.0 0.0 0.00 0.00 0.00 68 1016.1
20260902082154 84 124 0.0 0.0 0.00 0.00 0.00 66 1015.9
20260902081651 84 281 2.0 3.0 0.00 0.00 0.00 67 1016.1
20260902081145 84 180 0.0 2.0 0.00 0.00 0.00 68 1015.7
20260902080641 84 209 0.0 1.0 0.00 0.00 0.00 68 1015.9
20260902080137 84 270 0.0 1.0 0.00 0.00 0.00 68 1016.1
20260902075637 84 200 0.0 1.0 0.00 0.00 0.00 68 1016.0
20260902075133 84 262 0.0 1.0 0.00 0.00 0.00 68 1016.0
20260902074633 84 186 0.0 0.0 0.00 0.00 0.00 69 1015.9
20260902074129 84 186 0.0 0.0 0.00 0.00 0.00 68 1016.0
20260902073624 84 203 0.0 0.0 0.00 0.00 0.00 66 1016.1
20260902073120 85 257 0.0 1.0 0.00 0.00 0.00 67 1016.0
20260902072616 85 86 2.0 2.0 0.00 0.00 0.00 68 1015.9
20260902072112 85 255 0.0 1.0 0.00 0.00 0.00 68 1016.0
20260902071613 85 185 2.0 2.0 0.00 0.00 0.00 65 1016.1
20260902071109 85 294 0.0 1.0 0.00 0.00 0.00 66 1016.2
20260902070604 85 194 0.0 2.0 0.00 0.00 0.00 67 1016.2
20260902070059 86 229 0.0 2.0 0.00 0.00 0.00 65 1016.2
20260902065558 86 264 0.0 2.0 0.00 0.00 0.00 65 1015.8
20260902065054 86 246 0.0 2.0 0.00 0.00 0.00 66 1016.3
20260902064549 86 23 0.0 1.0 0.00 0.00 0.00 64 1016.1
20260902064045 86 90 0.0 2.0 0.00 0.00 0.00 64 1015.7
20260902063544 86 180 0.0 3.0 0.00 0.00 0.00 63 1015.8
20260902063040 86 173 0.0 2.0 0.00 0.00 0.00 63 1016.0
20260902062538 86 131 0.0 2.0 0.00 0.00 0.00 63 1015.9
20260902062034 86 180 1.0 3.0 0.00 0.00 0.00 67 1015.8
20260902061533 86 171 2.0 3.0 0.00 0.00 0.00 64 1015.8
20260902061029 87 270 0.0 2.0 0.00 0.00 0.00 63 1015.8
20260902060526 87 98 0.0 3.0 0.00 0.00 0.00 63 1015.7
20260902060022 87 180 0.0 3.0 0.00 0.00 0.00 61 1015.6
20260902055518 87 90 0.0 2.0 0.00 0.00 0.00 61 1015.5
20260902055013 87 75 2.0 3.0 0.00 0.00 0.00 62 1015.7
20260902054513 87 206 2.0 6.0 0.00 0.00 0.00 61 1015.5
20260902054009 87 151 2.0 3.0 0.00 0.00 0.00 61 1015.6
20260902053504 88 203 0.0 3.0 0.00 0.00 0.00 61 1015.2
20260902053003 88 192 0.0 2.0 0.00 0.00 0.00 60 1015.3
20260902052458 88 254 0.0 2.0 0.00 0.00 0.00 60 1015.5
20260902051954 88 171 5.0 5.0 0.00 0.00 0.00 60 1015.4
20260902051453 88 216 2.0 3.0 0.00 0.00 0.00 59 1015.3
20260902050952 88 194 0.0 1.0 0.00 0.00 0.00 59 1015.3
20260902050447 88 190 2.0 2.0 0.00 0.00 0.00 58 1015.3
20260902045942 88 192 1.0 3.0 0.00 0.00 0.00 58 1015.4
20260902045437 89 175 3.0 3.0 0.00 0.00 0.00 58 1015.7
20260902044934 89 202 2.0 3.0 0.00 0.00 0.00 58 1015.1
20260902044429 89 176 2.0 3.0 0.00 0.00 0.00 58 1015.3
20260902043924 88 294 1.0 2.0 0.00 0.00 0.00 60 1015.4
20260902043419 87 254 1.0 3.0 0.00 0.00 0.00 61 1015.3
20260902042914 87 203 0.0 0.0 0.00 0.00 0.00 62 1015.2
20260902042414 87 203 0.0 0.0 0.00 0.00 0.00 61 1014.9
20260902041909 87 203 0.0 0.0 0.00 0.00 0.00 61 1015.0
20260902041409 88 203 0.0 0.0 0.00 0.00 0.00 60 1015.0
20260902040908 88 203 0.0 0.0 0.00 0.00 0.00 60 1014.9
20260902040403 88 203 0.0 0.0 0.00 0.00 0.00 59 1015.2
20260902035903 88 203 0.0 0.0 0.00 0.00 0.00 59 1015.1
20260902035357 88 203 0.0 0.0 0.00 0.00 0.00 59 1014.9
20260902034856 88 203 0.0 0.0 0.00 0.00 0.00 59 1014.9
20260902034352 89 203 0.0 1.0 0.00 0.00 0.00 59 1015.2
20260902033850 89 187 0.0 0.0 0.00 0.00 0.00 58 1015.1
20260902033345 89 187 0.0 0.0 0.00 0.00 0.00 58 1015.0
20260902032844 89 188 0.0 0.0 0.00 0.00 0.00 57 1015.0
20260902032339 89 188 0.0 0.0 0.00 0.00 0.00 57 1015.0
20260902031838 89 180 0.0 0.0 0.00 0.00 0.00 57 1014.9
20260902031335 89 180 0.0 1.0 0.00 0.00 0.00 58 1014.8
20260902030830 89 188 0.0 1.0 0.00 0.00 0.00 58 1014.7
20260902030325 89 192 0.0 0.0 0.00 0.00 0.00 58 1014.8
20260902025824 89 192 0.0 0.0 0.00 0.00 0.00 58 1014.7
20260902025320 89 192 0.0 0.0 0.00 0.00 0.00 58 1014.6
20260902024814 90 192 0.0 0.0 0.00 0.00 0.00 57 1014.4
20260902024310 90 192 0.0 0.0 0.00 0.00 0.00 56 1014.5
20260902023805 90 192 0.0 0.0 0.00 0.00 0.00 55 1014.2
20260902023301 91 192 0.0 0.0 0.00 0.00 0.00 54 1014.3
20260902022759 91 192 0.0 0.0 0.00 0.00 0.00 53 1014.2
20260902022255 91 172 0.0 0.0 0.00 0.00 0.00 54 1014.0
20260902021751 91 172 0.0 0.0 0.00 0.00 0.00 54 1014.1
20260902021250 91 188 0.0 0.0 0.00 0.00 0.00 54 1014.1
20260902020747 91 188 0.0 0.0 0.00 0.00 0.00 55 1014.1
20260902020243 91 180 0.0 0.0 0.00 0.00 0.00 53 1014.1
20260902015738 92 180 0.0 0.0 0.00 0.00 0.00 52 1013.9
20260902015235 92 172 0.0 1.0 0.00 0.00 0.00 52 1013.7
20260902014730 92 194 0.0 0.0 0.00 0.00 0.00 51 1013.8
20260902014226 92 188 0.0 0.0 0.00 0.00 0.00 51 1013.8
20260902013724 92 180 0.0 1.0 0.00 0.00 0.00 51 1013.6
20260902013220 93 172 0.0 1.0 0.00 0.00 0.00 50 1013.6
20260902012715 93 160 0.0 0.0 0.00 0.00 0.00 50 1013.8
20260902012211 93 188 0.0 1.0 0.00 0.00 0.00 49 1013.7
20260902011707 93 173 0.0 0.0 0.00 0.00 0.00 49 1013.4
20260902011206 94 188 0.0 0.0 0.00 0.00 0.00 49 1013.5
20260902010706 94 180 0.0 1.0 0.00 0.00 0.00 48 1013.4
20260902010202 94 166 0.0 2.0 0.00 0.00 0.00 47 1013.5
20260902005659 94 175 0.0 2.0 0.00 0.00 0.00 48 1013.5
20260902005155 95 180 0.0 0.0 0.00 0.00 0.00 47 1013.4
20260902004655 95 180 0.0 1.0 0.00 0.00 0.00 47 1013.6
20260902004150 95 180 0.0 0.0 0.00 0.00 0.00 47 1013.4
20260902003646 96 180 0.0 0.0 0.00 0.00 0.00 45 1013.3
20260902003142 96 195 1.0 2.0 0.00 0.00 0.00 45 1013.4
20260902002637 97 270 0.0 2.0 0.00 0.00 0.00 46 1013.6
20260902002137 97 135 0.0 2.0 0.00 0.00 0.00 44 1013.6
20260902001632 97 286 0.0 1.0 0.00 0.00 0.00 44 1013.5
20260902001132 98 74 0.0 1.0 0.00 0.00 0.00 44 1013.6
20260902000627 98 81 1.0 1.0 0.00 0.00 0.00 44 1013.6
20260902000122 98 180 0.0 2.0 0.00 0.00 0.00 44 1013.6
20260901235622 98 203 0.0 2.0 0.00 0.00 0.00 44 1013.6
20260901235118 98 183 2.0 3.0 0.00 0.00 0.00 45 1013.7
20260901234616 98 192 0.0 2.0 0.00 0.00 0.00 43 1013.7
20260901234112 98 196 0.0 2.0 0.00 0.00 0.00 43 1013.8
20260901233607 98 195 0.0 2.0 0.00 0.00 0.00 43 1013.7
20260901233102 98 165 1.0 3.0 0.00 0.00 0.00 43 1013.7
20260901232557 98 190 2.0 2.0 0.00 0.00 0.00 43 1014.1
20260901232057 100 249 1.0 2.0 0.00 0.00 0.00 42 1014.0
20260901231554 100 184 2.0 3.0 0.00 0.00 0.00 41 1013.9
20260901231050 100 180 0.0 2.0 0.00 0.00 0.00 41 1013.7
20260901230545 100 0 0.0 2.0 0.00 0.00 0.00 41 1013.7
20260901230040 100 188 0.0 2.0 0.00 0.00 0.00 41 1013.7
20260901225535 100 185 2.0 2.0 0.00 0.00 0.00 41 1013.8
20260901225035 99 283 0.0 2.0 0.00 0.00 0.00 41 1013.9
20260901224531 99 106 1.0 2.0 0.00 0.00 0.00 41 1013.8
20260901224027 99 195 0.0 4.0 0.00 0.00 0.00 42 1013.9
20260901223528 99 90 0.0 0.0 0.00 0.00 0.00 42 1013.9
20260901223023 100 180 0.0 2.0 0.00 0.00 0.00 41 1013.8
20260901222519 99 264 2.0 2.0 0.00 0.00 0.00 43 1014.0
20260901222015 99 206 0.0 2.0 0.00 0.00 0.00 42 1013.8
20260901221510 99 175 2.0 3.0 0.00 0.00 0.00 42 1013.9
20260901221006 99 174 0.0 2.0 0.00 0.00 0.00 42 1013.7
20260901220505 100 188 0.0 1.0 0.00 0.00 0.00 41 1013.8
20260901220004 100 188 0.0 1.0 0.00 0.00 0.00 41 1014.2
20260901215502 99 180 2.0 3.0 0.00 0.00 0.00 41 1014.0
20260901215002 100 152 0.0 2.0 0.00 0.00 0.00 41 1014.0
20260901214501 100 90 0.0 1.0 0.00 0.00 0.00 42 1014.0
20260901213955 100 195 1.0 5.0 0.00 0.00 0.00 41 1014.1
20260901213450 100 180 0.0 2.0 0.00 0.00 0.00 41 1014.1
20260901212949 99 180 0.0 2.0 0.00 0.00 0.00 42 1014.2
20260901212445 100 180 1.0 3.0 0.00 0.00 0.00 41 1014.2
20260901211941 101 270 0.0 2.0 0.00 0.00 0.00 42 1014.1
20260901211437 100 187 0.0 3.0 0.00 0.00 0.00 40 1014.4
20260901210933 100 254 0.0 4.0 0.00 0.00 0.00 40 1014.4
20260901210428 100 188 0.0 2.0 0.00 0.00 0.00 41 1014.3
20260901205925 100 191 0.0 3.0 0.00 0.00 0.00 41 1014.4
20260901205425 100 180 0.0 3.0 0.00 0.00 0.00 42 1014.5
20260901204919 100 174 0.0 1.0 0.00 0.00 0.00 41 1014.6
20260901204416 100 285 0.0 1.0 0.00 0.00 0.00 41 1014.6
20260901203915 100 90 0.0 2.0 0.00 0.00 0.00 41 1014.6
20260901203410 99 180 0.0 0.0 0.00 0.00 0.00 43 1014.7
20260901202905 99 176 2.0 2.0 0.00 0.00 0.00 41 1014.7
20260901202400 99 185 0.0 2.0 0.00 0.00 0.00 43 1015.0
20260901201857 99 160 1.0 2.0 0.00 0.00 0.00 42 1015.0
20260901201356 99 325 0.0 3.0 0.00 0.00 0.00 43 1014.9
20260901200855 99 259 4.0 4.0 0.00 0.00 0.00 43 1015.0
20260901200351 99 270 0.0 2.0 0.00 0.00 0.00 45 1015.0
20260901195850 98 198 0.0 2.0 0.00 0.00 0.00 45 1015.3
20260901195343 98 180 0.0 2.0 0.00 0.00 0.00 45 1015.3
20260901194839 98 190 0.0 2.0 0.00 0.00 0.00 45 1015.4
20260901194338 98 197 3.0 3.0 0.00 0.00 0.00 45 1015.2
20260901193835 98 180 0.0 3.0 0.00 0.00 0.00 44 1015.6
20260901193333 98 173 0.0 3.0 0.00 0.00 0.00 46 1015.6
20260901192828 97 270 0.0 4.0 0.00 0.00 0.00 47 1015.6
20260901192324 98 81 1.0 2.0 0.00 0.00 0.00 47 1015.7